COSMOS 2251 DEB, 34620

Orbit data source: Space-Track

COSMOS 2251 DEB, 34620 is space debris in LEO originally from a launch on Wed, 16 Jun 1993 UTC launched from the Plesetsk Missile And Space Complex (PKMTR). The debris from Iridium 33, an American commercial communications satellite, has been tracked extensively since its accidental collision with the defunct Russian satellite Cosmos 2251 in 2009. This event, occurring at high speed in low Earth orbit (LEO), generated thousands of pieces of space debris, significantly increasing the risk of further collisions. The Iridium 33 debris cloud has impacted space traffic management and orbital debris mitigation strategies, making it a subject of ongoing study in space situational awareness.

Loading next visibility...
Identifier
34620, 1993-036WR
Orbit
LEO
Country
Flag of CISCIS
Related business
Manufacturer
Unknown
Mission
Spacecraft
Bus & Motor
Unknown
Mass
Unknown
Launch date (UTC)
1993-06-16 (33 years ago)
Launch vehicle
Unknown
Launch site
Plesetsk Missile And Space Complex (PKMTR)
Object type
Payload
Rocket body
Debris
Shape & HBR
Unknown shape, 0.1 m
Radar Cross Section
Small (<0.1 m²)

Expand to show TLE details & history
Last TLE update: 22 hours ago

TLE from 22 hours ago
0 COSMOS 2251 DEB
1 34620U 93036WR  26034.26231650  .00012123  00000-0  29839-2 0  9998
2 34620  74.0531 121.0259 0073272 146.7501 213.8296 14.50655584875882
Epoch: 2026-02-03T06:17Z
TLE epoch observation values (Epoch: 2026-02-03T06:17:44.145Z)
Latitude
-0.00004°
Longitude
-106.85382°
Altitude
769.488 km
Speed
7.447 km/s
True Right ascension
08h 04m 06s
True Declination
0° 00' 00"
Sunlit
Object was in full shadow at epoch
Visualization orbit readout
Latitude
Unknown
Longitude
Unknown
Altitude
Unknown
Speed
Unknown
Apparent Right ascension
Unknown
Apparent Declination
Unknown
Sunlit
N/A
Visualization observer readout
Local Sidereal Time
06:11:25
Azimuth
Unknown
Elevation
Unknown
Doppler factor
Unknown
Orbital elements
Apogee altitude
773.132 km
Perigee altitude
669.097 km
Semi-major axis
7,099.251 km
Eccentricity
0.00733
Inclination
74.0531°
RAAN
121.0259°
Arg. of periapsis
146.7501°
True anomaly
213.36569°
Mean anomaly
213.8296°
Eccentric anomaly
213.59729°
Mean motion
3.62848 °/min
Orbital period
99.22 mins
BSTAR
0.0029839
Loading maneuver chart data...
Computing Atmospheric mass density...
Loading historical data...
Loading historical data...
Loading historical data...
Loading historical data...
Loading historical data...
Loading historical data...
Loading historical data...

Documentation

Showing up to 5 results
|